User: anonymous   Login
Location: Unspecified
(0.0000°N, 0.0000°E)
Time: 09:13:42
(UTC+00:00)
Language:

ATS 3 - Orbit

View from above orbital plane
View from above orbital plane
View from above satellite
View from above satellite

Ground track
Ground track

The orbit data is extracted from the following two-line orbital elements,

1  3029U 67111A   17086.48817573 -.00000111 +00000-0 +00000-0 0  9999
2  3029 004.9045 299.1073 0013960 116.4035 200.2344 01.00272143180855
Epoch (UTC): 27 March 2017 11:42:58
Eccentricity: 0.0013960
inclination: 4.9045°
perigee height: 35727 km
apogee height: 35845 km
right ascension of ascending node: 299.1073°
argument of perigee: 116.4035°
revolutions per day: 1.00272143
mean anomaly at epoch: 200.2344°
orbit number at epoch: 18085

The dashed part of the orbit path shows where the satellite is in the earth's shadow,  

DLR